Theta_e
345 341 339 338 341 339 338 337 339 342 342 340 338 339 339 334 333 334 331 332 331 327
335 335 333 334 335 332 333 331 332 333 334 334 333 332 332 329 330 330 330 329 329 326
330 330 330 329 328 328 328 328 328 327 328 328 328 328 329 327 328 326 325 324 325 325
323 322 321 321 321 322 323 323 322 322 323 323 324 325 325 325 324 323 324 324 323 322
318 317 314 314 315 316 318 319 318 318 318 318 318 320 319 318 319 318 318 319 320 319
313 312 310 310 311 313 314 315 315 315 315 314 315 315 316 315 316 317 318 319 318 319
312 310 309 309 309 310 311 311 312 313 313 313 313 314 314 314 314 315 316 317 317 317
310 310 310 309 309 311 311 312 312 312 313 314 313 311 309 309 311 313 314 316 316 317
308 309 310 310 310 311 311 312 312 313 312 312 312 301 301 303 307 310 312 313 315 316
307 307 308 309 309 310 310 312 312 312 310 309 307 300 299 300 306 309 312 313 313 313
304 305 306 307 308 309 309 309 309 309 309 308 306 300 298 299 308 310 312 313 313 312
304 305 305 305 304 305 305 305 306 307 308 306 306 298 296 298 304 306 308 310 311 310
305 305 304 304 304 303 304 303 302 304 306 303 305 297 295 295 297 298 303 307 309 304
304 304 303 302 302 302 301 300 300 301 304 304 301 300 295 294 295 298 298 303 307 308
Wind_Speed
6 7 6 8 7 4 5 4 1 2 3 3 3 2 2 5 6 4 6 7 8 8
12 11 11 11 8 7 7 5 5 4 3 1 0 2 3 5 5 5 7 7 8 9
14 14 12 10 10 8 6 5 5 4 3 3 4 5 5 5 6 7 8 8 10 10
13 14 11 10 10 8 7 6 6 5 5 5 6 6 7 8 10 11 11 12 12 13
12 12 10 10 11 6 6 6 6 6 6 7 8 8 9 11 12 13 14 14 14 15
8 8 10 9 13 11 9 9 9 8 8 9 9 10 10 11 13 13 13 13 14 15
10 9 14 13 9 6 6 7 8 8 8 8 9 10 11 10 12 13 13 14 14 15
10 11 10 7 5 5 6 7 8 8 8 9 9 6 10 13 14 14 15 14 15 15
9 9 8 7 6 5 6 6 7 7 9 11 8 10 8 12 14 15 15 14 15 15
9 8 7 7 6 7 6 7 8 9 10 9 10 7 8 11 13 14 14 15 15 15
9 8 8 8 8 8 8 8 8 8 9 9 7 7 8 13 14 13 15 15 15 15
8 8 8 8 8 8 8 8 8 7 9 9 9 9 12 15 13 13 14 14 15 14
8 8 8 8 8 9 9 9 8 9 9 8 10 10 13 13 9 11 11 13 13 10
9 6 8 7 7 8 8 9 9 10 9 9 10 10 12 18 10 8 9 10 10 11
Wind_Direction
99 70 82 52 57 57 71 59 34 130 127 128 150 171 201 224 265 281 270 278 283 290
93 89 77 65 65 71 54 86 44 46 47 61 271 278 296 264 273 282 273 285 272 274
102 90 88 87 79 70 60 42 31 12 344 329 315 310 310 284 275 287 286 289 288 281
95 92 87 86 79 53 45 24 11 357 341 322 311 314 309 300 290 282 286 282 277 279
92 100 93 83 72 45 34 359 340 335 325 314 313 315 308 300 298 291 288 288 288 285
86 85 82 62 55 25 360 342 331 331 322 322 319 307 297 290 289 289 288 290 289 289
59 46 50 45 32 5 339 319 316 317 313 313 310 307 296 312 306 299 295 294 288 282
49 51 46 39 12 342 321 317 313 315 319 320 317 336 343 321 307 300 296 293 287 282
37 42 33 16 356 338 326 321 318 329 327 324 315 53 2 323 308 301 296 296 297 295
34 33 22 8 358 351 338 336 333 335 343 341 333 13 337 326 310 302 294 295 296 297
30 24 14 6 2 351 344 341 339 338 325 328 333 353 345 338 302 311 301 304 303 297
29 27 20 15 2 357 343 338 332 324 319 334 334 37 11 343 320 310 306 308 312 316
30 29 23 11 6 358 349 351 336 331 341 357 340 27 354 334 325 315 319 319 312 293
25 15 29 14 17 7 4 357 352 347 349 353 3 345 345 337 333 322 315 313 331 330